Telluride, CO

1:03 PM MDT on June 24, 2018 (GMT -0600)
Telluride Regional

Weather History for KTEX - October, 2017

Change the Weather History Date:

Sunday, October 29, 2017

  Actual Average Record
Temperature  
Mean Temperature 44 °F -  
Max Temperature 58 °F 43 °F 60 °F (2007)
Min Temperature 31 °F 27 °F 21 °F (2002)
Degree Days  
Heating Degree Days 20    
Moisture  
Dew Point 20 °F    
Average Humidity 45    
Maximum Humidity 67    
Minimum Humidity 20    
Precipitation  
Precipitation 0.00 in - - ()
Sea Level Pressure  
Sea Level Pressure 30.23 in    
Wind  
Wind Speed 5 mph (South)    
Max Wind Speed 15 mph    
Max Gust Speed 17 mph    
Visibility 10 miles    
Events      
Averages and records for this station are not official NWS values.
T = Trace of Precipitation, MM = Missing Value Source: NWS Daily Summary

Daily Weather History Graph

Daily Weather History Graph

Search for Another Location

Airport or City:

Astronomy

Oct. 29, 2017 Rise Set
Actual Time 7:34 AM MDT 6:15 PM MDT
Civil Twilight 7:07 AM MDT 6:42 PM MDT
Nautical Twilight 6:36 AM MDT 7:13 PM MDT
Astronomical Twilight 6:05 AM MDT 7:44 PM MDT
Moon 3:24 PM MDT (10/29) 1:29 AM MDT (10/29)
Length of Visible Light 11h 35m
Length of Day
10h 41m
Waxing Gibbous, 68% of the Moon is Illuminated
Oct 29
Waxing Gibbous
Nov 3
Full
Nov 10
Last Quarter
Nov 18
New
Nov 26
First Quarter

Hourly Weather History & Observations

Time (MDT) Temp. Windchill Dew Point Humidity Pressure Visibility Wind Dir Wind Speed Gust Speed Precip Events Conditions
12:15 AM 34.9 °F 32.0 °F 23.7 °F 64% 30.27 in 10.0 mi SE 3.5 mph - N/A   Clear
12:35 AM 34.2 °F 29.0 °F 23.7 °F 66% 30.27 in 10.0 mi SE 5.8 mph - N/A   Clear
12:55 AM 34.0 °F 29.8 °F 23.5 °F 66% 30.27 in 10.0 mi SE 4.6 mph - N/A   Clear
1:15 AM 34.2 °F - 23.5 °F 65% 30.28 in 10.0 mi Calm Calm - N/A   Clear
1:35 AM 33.8 °F - 23.2 °F 65% 30.27 in 10.0 mi Calm Calm - N/A   Clear
1:55 AM 34.3 °F 31.4 °F 23.4 °F 64% 30.27 in 10.0 mi SE 3.5 mph - N/A   Clear
2:15 AM 32.5 °F - 22.6 °F 67% 30.28 in 10.0 mi Calm Calm - N/A   Clear
2:35 AM 33.1 °F 26.9 °F 22.5 °F 65% 30.27 in 10.0 mi SE 6.9 mph - N/A   Clear
2:55 AM 33.3 °F 28.9 °F 22.5 °F 65% 30.27 in 10.0 mi SE 4.6 mph - N/A   Clear
3:15 AM 32.5 °F 28.1 °F 21.7 °F 64% 30.27 in 10.0 mi East 4.6 mph - N/A   Clear
3:35 AM 33.4 °F - 22.1 °F 63% 30.26 in 10.0 mi Calm Calm - N/A   Clear
3:55 AM 33.6 °F 26.8 °F 21.0 °F 60% 30.25 in 10.0 mi SSE 8.1 mph - N/A   Clear
4:15 AM 33.6 °F 28.4 °F 21.2 °F 60% 30.25 in 10.0 mi SSE 5.8 mph - N/A   Clear
4:35 AM 32.2 °F 27.7 °F 20.8 °F 63% 30.25 in 10.0 mi East 4.6 mph - N/A   Clear
4:55 AM 33.4 °F 28.1 °F 20.3 °F 59% 30.25 in 10.0 mi SE 5.8 mph - N/A   Clear
5:15 AM 32.5 °F 27.1 °F 20.1 °F 60% 30.26 in 10.0 mi SE 5.8 mph - N/A   Clear
5:35 AM 33.4 °F 28.1 °F 20.1 °F 58% 30.26 in 10.0 mi SE 5.8 mph - N/A   Clear
5:55 AM 33.1 °F 30.0 °F 19.4 °F 57% 30.25 in 10.0 mi ESE 3.5 mph - N/A   Clear
6:15 AM 32.7 °F 25.7 °F 19.9 °F 59% 30.25 in 10.0 mi SSE 8.1 mph - N/A   Clear
6:35 AM 33.1 °F 30.0 °F 19.4 °F 57% 30.25 in 10.0 mi ESE 3.5 mph - N/A   Clear
6:55 AM 31.6 °F 28.3 °F 19.2 °F 60% 30.25 in 10.0 mi East 3.5 mph - N/A   Clear
7:15 AM 33.1 °F 27.7 °F 19.4 °F 57% 30.25 in 10.0 mi SE 5.8 mph - N/A   Clear
7:35 AM 32.9 °F 28.5 °F 19.2 °F 57% 30.25 in 10.0 mi SE 4.6 mph - N/A   Clear
7:55 AM 33.3 °F 27.1 °F 19.4 °F 57% 30.25 in 10.0 mi SE 6.9 mph - N/A   Clear
8:15 AM 33.8 °F 28.6 °F 19.9 °F 57% 30.25 in 10.0 mi SSE 5.8 mph - N/A   Clear
8:35 AM 35.8 °F 31.9 °F 20.3 °F 53% 30.26 in 10.0 mi SE 4.6 mph - N/A   Clear
8:55 AM 37.6 °F 35.1 °F 20.8 °F 51% 30.26 in 10.0 mi ESE 3.5 mph - N/A   Clear
9:15 AM 39.9 °F - 20.3 °F 45% 30.26 in 10.0 mi Calm Calm - N/A   Clear
9:35 AM 42.1 °F - 19.6 °F 41% 30.25 in 10.0 mi Calm Calm - N/A   Clear
10:35 AM 48.4 °F - 18.5 °F 31% 30.24 in 10.0 mi Calm Calm - N/A   Clear
10:55 AM 50.9 °F - 18.5 °F 28% 30.24 in 10.0 mi Calm Calm - N/A   Clear
11:15 AM 53.2 °F - 19.2 °F 26% 30.24 in 10.0 mi West 3.5 mph - N/A   Clear
11:35 AM 54.5 °F - 19.6 °F 26% 30.23 in 10.0 mi West 3.5 mph - N/A   Clear
12:15 PM 56.3 °F - 16.3 °F 21% 30.22 in 10.0 mi West 8.1 mph - N/A   Clear
12:35 PM 57.2 °F - 17.8 °F 21% 30.21 in 10.0 mi West 11.5 mph - N/A   Clear
12:55 PM 57.0 °F - 17.1 °F 21% 30.20 in 10.0 mi West 11.5 mph - N/A   Clear
1:15 PM 57.4 °F - 17.1 °F 21% 30.19 in 10.0 mi West 13.8 mph 17.3 mph N/A   Clear
1:35 PM 58.1 °F - 16.9 °F 20% 30.19 in 10.0 mi West 12.7 mph - N/A   Clear
1:55 PM 58.1 °F - 18.3 °F 21% 30.19 in 10.0 mi West 11.5 mph 17.3 mph N/A   Clear
2:15 PM 57.9 °F - 18.5 °F 22% 30.18 in 10.0 mi West 10.4 mph - N/A   Clear
2:35 PM 57.6 °F - 16.5 °F 20% 30.18 in 10.0 mi West 12.7 mph - N/A   Clear
2:55 PM 57.6 °F - 17.6 °F 21% 30.17 in 10.0 mi West 13.8 mph - N/A   Clear
3:15 PM 57.2 °F - 18.5 °F 22% 30.17 in 10.0 mi West 11.5 mph - N/A   Clear
3:35 PM 56.5 °F - 18.1 °F 22% 30.17 in 10.0 mi West 13.8 mph - N/A   Clear
3:55 PM 56.3 °F - 18.1 °F 23% 30.16 in 10.0 mi West 11.5 mph - N/A   Clear
4:35 PM 55.8 °F - 19.9 °F 25% 30.16 in 10.0 mi West 12.7 mph - N/A   Clear
4:55 PM 55.4 °F - 20.7 °F 26% 30.16 in 10.0 mi West 12.7 mph 17.3 mph N/A   Clear
5:15 PM 54.5 °F - 21.9 °F 28% 30.16 in 10.0 mi West 15.0 mph - N/A   Clear